Weather History for Alpena, MI

Change the Weather History Date:

Friday, November 18, 2011

  Actual Average Record
Temperature  
Mean Temperature 36 °F 35 °F  
Max Temperature 47 °F 42 °F 69 °F (1953)
Min Temperature 25 °F 28 °F 9 °F (1989)
Degree Days  
Heating Degree Days 29 30  
Month to date heating degree days 414 489  
Since 1 July heating degree days 1203 1433  
Moisture  
Dew Point 18 °F    
Average Humidity 55    
Maximum Humidity 81    
Minimum Humidity 28    
Precipitation  
Precipitation 0.00 in 0.08 in 1.13 in (1926)
Month to date precipitation 1.62 1.28  
Year to date precipitation 34.95 25.59  
Snow  
Snow 0.00 in 0.30 in 3.20 in (1926)
Month to date snowfall 0.2 3.2  
Since 1 July snowfall 0.2 3.6  
Snow Depth 0.00 in    
Sea Level Pressure  
Sea Level Pressure 30.01 in    
Wind  
Wind Speed 10 mph (SSW)    
Max Wind Speed 22 mph    
Max Gust Speed 28 mph    
Visibility 10 miles    
Events      
T = Trace of Precipitation, MM = Missing Value Source: NWS Daily Summary

Daily Weather History Graph

Daily Weather History Graph

Search for Another Location

Airport:

Trip Planner

Search our weather history database for the weather conditions in past years. The results will help you decide how hot, cold, wet, or windy it might be!

Date:

Astronomy

Nov. 18, 2011 Rise Set
Actual Time 7:35 AM EST 5:02 PM EST
Civil Twilight 7:03 AM EST 5:34 PM EST
Nautical Twilight 6:27 AM EST 6:10 PM EST
Astronomical Twilight 5:53 AM EST 6:45 PM EST
Moon No Moon Rise 1:06 PM EST (11/18)
Length of Visible Light 10h 30m
Length of Day
9h 26m
Waning Gibbous, 49% of the Moon is Illuminated
Nov 18
Waning Gibbous
Nov 25
New
Dec 2
First Quarter
Dec 10
Full
Dec 17
Last Quarter

Hourly Weather History & Observations

Time (EST) Temp. Windchill Dew Point Humidity Pressure Visibility Wind Dir Wind Speed Gust Speed Precip Events Conditions
12:54 AM 26.1 °F 18.4 °F 21.9 °F 84% 30.13 in 10.0 mi SW 6.9 mph - N/A   Partly Cloudy
1:54 AM 26.1 °F 19.4 °F 21.0 °F 81% 30.14 in 10.0 mi SW 5.8 mph - N/A   Clear
2:54 AM 27.0 °F 20.5 °F 19.0 °F 72% 30.15 in 10.0 mi SW 5.8 mph - N/A   Overcast
3:54 AM 26.1 °F 19.4 °F 17.1 °F 69% 30.16 in 10.0 mi SW 5.8 mph - N/A   Clear
4:54 AM 26.1 °F 19.4 °F 17.1 °F 69% 30.15 in 10.0 mi SSW 5.8 mph - N/A   Clear
5:54 AM 25.0 °F 19.3 °F 18.0 °F 75% 30.16 in 10.0 mi South 4.6 mph - N/A   Mostly Cloudy
6:54 AM 27.0 °F 20.5 °F 19.0 °F 72% 30.16 in 10.0 mi SSW 5.8 mph - N/A   Overcast
7:54 AM 27.0 °F 20.5 °F 18.0 °F 69% 30.15 in 10.0 mi South 5.8 mph - N/A   Scattered Clouds
8:54 AM 28.0 °F 18.6 °F 19.0 °F 69% 30.14 in 10.0 mi South 10.4 mph - N/A   Overcast
9:54 AM 30.0 °F 20.5 °F 19.0 °F 64% 30.11 in 10.0 mi South 11.5 mph - N/A   Overcast
10:54 AM 34.0 °F 24.2 °F 19.9 °F 56% 30.07 in 10.0 mi South 15.0 mph - N/A   Overcast
11:54 AM 35.1 °F 25.9 °F 21.9 °F 59% 30.02 in 10.0 mi South 13.8 mph - N/A   Overcast
12:54 PM 37.0 °F 29.8 °F 21.9 °F 54% 29.97 in 10.0 mi SSW 10.4 mph 21.9 mph N/A   Overcast
1:54 PM 41.0 °F 34.3 °F 21.0 °F 45% 29.92 in 10.0 mi South 11.5 mph - N/A   Clear
2:54 PM 46.0 °F 38.5 °F 19.0 °F 34% 29.88 in 10.0 mi SSW 19.6 mph 24.2 mph N/A   Partly Cloudy
3:54 PM 46.9 °F - 17.1 °F 30% 29.86 in 10.0 mi South 16.1 mph 23.0 mph N/A   Clear
4:54 PM 45.0 °F 38.5 °F 14.0 °F 29% 29.86 in 10.0 mi SSW 13.8 mph 24.2 mph N/A   Clear
5:54 PM 43.0 °F 36.0 °F 16.0 °F 34% 29.88 in 10.0 mi South 13.8 mph - N/A   Clear
6:54 PM 41.0 °F 35.8 °F 17.1 °F 38% 29.89 in 10.0 mi SSW 8.1 mph - N/A   Clear
7:54 PM 43.0 °F 39.5 °F 17.1 °F 35% 29.91 in 10.0 mi SSW 5.8 mph - N/A   Mostly Cloudy
8:54 PM 41.0 °F 35.8 °F 17.1 °F 38% 29.91 in 10.0 mi South 8.1 mph - N/A   Partly Cloudy
9:54 PM 39.9 °F 34.5 °F 17.1 °F 40% 29.90 in 10.0 mi South 8.1 mph - N/A   Clear
10:54 PM 39.9 °F 33.4 °F 17.1 °F 40% 29.90 in 10.0 mi SSW 10.4 mph - N/A   Clear
11:54 PM 39.0 °F 34.0 °F 18.0 °F 43% 29.90 in 10.0 mi South 6.9 mph - N/A   Clear